Temp
34 34 33 33 33 33 31 31 31 30 30 31 31 31 31 30 31 29 30 31 30 31 31 31 32 32 33 34 32 35 39 39 36 41 34 34 32 36 35 37 37 37 40
34 33 33 33 31 30 31 31 29 31 32 29 30 30 31 30 30 29 29 29 28 30 32 31 31 35 31 32 32 33 32 36 37 35 40 30 32 34 37 34 35 37 36
33 32 31 30 29 28 29 29 29 29 29 29 29 29 30 30 29 30 30 30 30 30 30 31 31 31 31 33 34 34 34 37 35 35 36 30 31 30 30 32 33 34 35
32 31 29 28 28 28 27 27 26 27 26 27 28 28 29 29 30 30 30 29 30 31 31 31 31 31 31 32 34 35 35 34 34 34 34 35 29 29 33 32 29 31 32
31 30 29 28 28 27 26 26 27 27 28 28 28 27 28 29 30 29 30 29 29 29 31 32 32 32 34 35 33 33 34 34 34 32 33 34 30 27 30 32 33 32 32
27 25 27 26 26 26 25 25 25 25 25 25 24 24 24 27 30 31 31 29 29 28 28 29 30 31 33 36 37 38 37 32 32 32 32 32 35 33 35 34 32 30 29
22 21 21 22 21 22 21 22 21 20 20 20 20 21 20 22 26 28 28 27 26 26 26 27 28 31 31 31 34 36 36 38 40 36 33 33 34 37 36 32 32 34 35
20 17 17 19 17 18 18 16 16 17 16 16 16 16 16 18 22 23 24 22 21 22 24 25 25 26 27 28 29 29 30 32 33 36 37 37 37 38 37 36 36 34 37
20 19 17 15 12 14 11 12 13 12 12 11 13 12 11 11 17 19 21 18 18 18 21 22 22 23 26 28 26 24 26 29 35 38 39 39 40 41 41 35 32 31 30
18 18 16 14 8 9 10 9 10 9 10 11 10 10 9 8 14 17 19 16 13 16 18 21 23 23 26 28 24 22 21 24 28 31 32 35 38 37 40 36 33 31 31
14 13 11 11 8 7 7 8 6 6 7 5 6 7 7 9 9 16 19 17 15 14 14 16 19 23 24 25 27 23 23 27 28 30 31 31 32 33 36 37 35 34 32
9 7 6 4 5 7 3 4 4 3 2 2 3 5 8 10 13 16 19 21 21 16 15 17 18 22 23 25 25 25 27 28 26 27 28 29 31 32 34 35 35 33 37
0 -3 -2 1 4 4 1 2 1 2 1 1 3 3 5 9 10 16 19 20 21 17 17 19 23 25 26 25 24 25 24 21 22 23 26 29 31 34 35 34 35 34 33
-10 -3 1 1 2 1 4 4 2 0 1 2 2 3 6 10 13 15 15 15 18 18 18 17 19 22 24 23 20 21 20 20 20 21 25 30 33 32 32 33 31 31 29
-5 1 1 1 -2 2 3 3 4 6 7 7 10 11 11 11 13 20 21 19 19 21 21 20 16 10 10 11 12 16 19 18 19 22 26 28 30 29 29 31 30 29 27
-2 1 1 1 2 2 2 2 10 13 15 17 19 17 15 19 21 23 23 24 24 25 20 18 17 17 16 15 13 14 16 17 19 21 26 26 27 28 28 29 28 28 24
-9 -2 -0 1 -0 -0 0 -0 -2 5 13 14 16 17 18 19 20 21 22 22 22 21 13 12 13 14 15 15 14 14 14 18 21 21 23 24 26 29 26 26 25 26 23
-12 -4 -3 -2 -2 -1 -1 -0 0 -1 -1 2 10 13 15 16 18 19 18 15 4 8 8 9 9 10 13 14 14 14 15 17 19 21 24 26 28 27 24 25 24 24 23
-9 -6 -6 -3 -1 -0 -1 -1 -0 0 1 1 3 7 8 13 16 14 13 4 3 3 5 6 7 8 10 12 14 14 14 15 18 21 23 25 27 25 25 25 24 23 23
-12 -6 -2 -7 -3 -4 -3 -3 -2 -1 -1 -0 0 1 3 8 2 2 3 3 2 3 4 4 5 7 11 14 17 17 17 15 17 20 23 24 25 25 25 23 23 21 21
-13 -10 -6 -8 -8 -6 -5 -5 -3 -3 -2 -2 -0 3 14 3 1 1 2 2 2 2 2 3 4 6 8 10 12 18 19 20 22 23 24 24 23 23 24 23 22 21 21
-15 -15 -14 -9 -6 -7 -8 -5 -5 -5 -3 -2 -0 1 9 1 1 1 2 3 3 4 4 3 4 6 7 8 10 11 14 15 17 18 19 19 19 20 20 19 19 19 17
-14 -13 -8 -7 -8 -9 -9 -11 -10 -7 -6 -5 -3 -2 -1 -1 -1 0 1 3 3 4 5 5 5 6 8 9 11 11 10 10 13 15 15 15 15 15 16 16 15 14 14
-13 -10 -6 -6 -12 -12 -12 -12 -11 -9 -8 -8 -8 -6 -4 -4 -3 -2 -0 2 3 4 5 5 5 6 7 9 10 10 12 13 13 13 13 12 12 13 13 13 13 13 13
-9 -6 -6 -8 -16 -15 -17 -17 -13 -16 -14 -12 -9 -8 -7 -6 -5 -4 -3 -1 1 2 2 4 5 5 7 10 10 10 11 11 11 13 13 12 11 11 11 11 11 11 11
-5 -6 -7 -11 -15 -18 -21 -20 -18 -15 -15 -11 -11 -10 -9 -8 -7 -6 -4 -4 -2 -1 0 2 3 4 5 10 12 15 15 14 11 11 11 11 10 10 10 10 10 9 9
MSLP
1027.01 1027.01 1027.02 1027.00 1026.98 1026.88 1026.67 1026.56 1026.52 1026.32 1026.29 1026.31 1025.94 1025.04 1024.92 1024.55 1023.82 1023.33 1023.01 1022.42 1022.18 1021.96 1021.29 1020.81 1020.26 1019.75 1019.56 1019.04 1018.89 1018.86 1018.75 1018.70 1017.80 1017.14 1017.21 1016.92 1017.16 1017.30 1017.53 1017.69 1018.03 1018.40 1018.55
1026.87 1026.96 1027.10 1027.21 1027.27 1027.17 1026.93 1026.79 1026.65 1026.64 1025.98 1026.27 1025.88 1025.14 1024.81 1024.77 1024.02 1023.11 1022.89 1022.63 1022.18 1021.50 1020.90 1020.51 1019.90 1019.25 1018.89 1018.63 1018.24 1018.10 1017.96 1017.91 1017.74 1016.75 1016.92 1016.85 1016.60 1016.39 1016.47 1016.86 1017.20 1017.38 1017.67
1026.81 1027.02 1027.18 1027.18 1027.15 1027.05 1026.95 1026.85 1026.71 1026.53 1026.19 1025.94 1025.58 1025.17 1024.51 1024.08 1023.63 1022.99 1022.40 1022.00 1021.72 1021.37 1020.86 1020.32 1019.47 1019.00 1018.39 1017.92 1017.38 1017.17 1017.11 1016.74 1016.67 1016.55 1016.08 1016.21 1015.88 1015.82 1016.18 1016.33 1016.46 1016.69 1017.16
1026.61 1026.82 1026.97 1027.07 1027.12 1027.01 1026.82 1026.73 1026.67 1026.46 1026.16 1025.69 1025.17 1024.60 1024.29 1023.94 1023.24 1022.64 1022.27 1021.60 1021.14 1020.74 1020.02 1019.69 1018.79 1018.38 1017.97 1017.19 1016.70 1016.30 1016.34 1016.12 1015.96 1015.48 1015.31 1015.61 1015.54 1015.13 1014.85 1015.35 1015.99 1015.98 1016.26
1026.35 1026.69 1026.96 1027.01 1026.99 1026.92 1026.79 1026.70 1026.47 1026.19 1025.80 1025.22 1024.76 1024.30 1023.85 1023.25 1022.67 1022.27 1021.82 1021.15 1020.53 1019.98 1019.36 1018.92 1017.87 1017.48 1017.03 1016.59 1016.42 1015.71 1015.50 1015.43 1015.04 1014.89 1014.30 1014.51 1014.72 1014.69 1013.62 1013.67 1014.21 1015.22 1015.43
1026.80 1027.20 1027.16 1027.10 1027.06 1027.09 1027.06 1026.97 1026.63 1026.15 1025.69 1025.18 1024.67 1024.15 1023.32 1022.73 1022.34 1022.08 1021.61 1020.94 1020.29 1019.48 1018.58 1017.70 1016.98 1016.87 1016.06 1015.61 1015.27 1014.99 1014.83 1014.47 1013.93 1013.81 1013.33 1013.13 1012.59 1012.70 1013.21 1012.94 1013.08 1014.00 1014.59
1027.19 1027.25 1027.33 1027.51 1027.63 1027.56 1027.39 1027.06 1026.64 1026.15 1025.67 1025.14 1024.62 1024.09 1023.17 1022.65 1022.28 1021.65 1021.04 1020.19 1019.27 1018.42 1017.63 1016.86 1016.13 1015.79 1015.34 1014.83 1014.33 1013.97 1013.64 1013.34 1012.66 1012.67 1012.08 1011.54 1011.38 1011.20 1011.72 1012.17 1011.83 1011.69 1011.44
1027.53 1027.77 1027.71 1027.90 1027.99 1027.85 1027.59 1027.29 1026.83 1026.38 1025.86 1025.29 1024.67 1024.29 1023.54 1022.81 1022.22 1021.46 1020.71 1019.75 1018.76 1017.86 1017.23 1016.60 1015.94 1015.16 1014.85 1014.73 1014.26 1013.45 1012.57 1012.10 1011.62 1011.22 1010.57 1010.37 1010.02 1010.29 1010.29 1010.35 1010.54 1010.71 1010.89
1027.51 1027.86 1028.08 1028.23 1028.25 1028.08 1027.86 1027.39 1026.97 1026.46 1025.86 1025.30 1024.75 1024.06 1023.58 1022.82 1022.32 1021.34 1020.34 1019.39 1018.32 1017.44 1016.95 1016.31 1015.73 1014.97 1014.53 1014.26 1013.54 1012.48 1011.69 1010.71 1010.07 1009.84 1009.54 1009.17 1008.84 1008.82 1009.18 1009.65 1009.98 1010.19 1010.08
1027.72 1027.92 1028.10 1028.15 1028.10 1027.97 1027.73 1027.37 1026.90 1026.51 1025.71 1025.14 1024.37 1024.02 1023.36 1022.45 1021.80 1020.83 1019.80 1018.78 1017.61 1016.79 1016.15 1015.40 1014.87 1014.19 1013.51 1013.06 1012.55 1011.92 1010.77 1009.28 1009.62 1008.90 1008.32 1007.69 1007.52 1007.60 1007.79 1007.93 1008.51 1008.40 1008.28
1027.83 1028.00 1028.13 1028.17 1028.05 1027.85 1027.43 1027.03 1026.56 1026.03 1025.49 1024.89 1024.12 1023.43 1022.74 1022.00 1021.02 1020.02 1018.96 1017.89 1017.01 1015.99 1015.18 1014.44 1013.95 1013.55 1012.81 1012.26 1011.69 1010.62 1009.29 1008.81 1008.20 1007.57 1006.88 1006.32 1006.22 1006.17 1006.06 1006.32 1006.41 1006.77 1006.86
1027.91 1028.13 1028.22 1028.14 1027.96 1027.60 1027.19 1026.58 1026.09 1025.63 1025.08 1024.26 1023.43 1022.62 1021.72 1020.80 1019.95 1018.91 1017.93 1016.90 1015.98 1014.91 1014.01 1013.23 1012.67 1012.29 1011.47 1010.67 1010.01 1009.43 1008.61 1007.80 1007.06 1005.85 1004.94 1004.32 1004.26 1004.36 1004.47 1004.78 1005.04 1005.09 1005.17
1027.93 1028.28 1028.11 1027.87 1027.58 1027.20 1026.82 1026.19 1025.62 1025.10 1024.41 1023.54 1022.84 1021.80 1020.50 1019.48 1018.54 1017.52 1016.49 1015.58 1014.75 1013.81 1012.94 1012.02 1010.93 1009.94 1009.16 1008.56 1008.47 1008.11 1007.65 1007.13 1006.13 1004.88 1003.29 1002.51 1002.37 1002.56 1003.29 1003.64 1003.92 1004.12 1004.37
1028.08 1027.79 1027.47 1027.34 1026.91 1026.58 1026.23 1025.68 1025.07 1024.41 1023.58 1022.75 1021.75 1020.46 1019.04 1017.84 1016.79 1015.96 1014.97 1013.83 1012.96 1012.11 1011.25 1010.07 1009.17 1008.50 1007.98 1007.22 1006.99 1006.71 1006.30 1005.77 1005.19 1003.93 1002.47 1001.13 1001.02 1001.19 1001.44 1002.20 1002.79 1003.17 1003.50
1027.74 1027.33 1027.06 1026.74 1026.46 1025.97 1025.57 1025.00 1024.35 1023.44 1022.63 1021.19 1019.86 1018.70 1017.40 1016.26 1015.44 1014.18 1012.97 1011.97 1010.97 1009.98 1008.85 1007.98 1007.64 1007.57 1006.86 1006.36 1005.91 1005.28 1004.70 1004.22 1003.51 1002.58 1000.98 999.92 999.77 999.74 999.95 1000.59 1001.16 1002.11 1002.53
1027.62 1027.16 1026.81 1026.37 1025.95 1025.52 1024.93 1024.09 1023.21 1022.32 1021.23 1020.21 1018.95 1017.77 1016.63 1015.48 1014.16 1012.88 1011.81 1010.80 1009.68 1008.51 1007.43 1006.71 1006.04 1005.64 1005.27 1004.54 1003.97 1003.38 1003.02 1002.47 1001.65 1000.98 998.79 998.30 998.21 998.44 998.61 999.44 1000.17 1000.62 1001.36
1027.27 1026.88 1026.43 1026.02 1025.69 1025.15 1024.52 1023.96 1023.01 1020.75 1020.19 1019.65 1018.65 1017.48 1016.31 1014.91 1013.76 1012.52 1011.23 1010.09 1009.28 1008.50 1007.88 1006.96 1006.03 1005.02 1003.87 1003.11 1002.57 1002.12 1001.55 1000.87 1000.22 999.66 998.26 997.74 997.61 997.65 998.07 998.35 999.05 999.71 1000.37
1026.82 1026.46 1026.11 1025.70 1025.34 1024.79 1024.24 1023.57 1022.95 1022.02 1020.82 1018.74 1017.71 1017.24 1016.04 1014.95 1013.63 1012.12 1011.37 1010.49 1010.02 1009.14 1008.57 1007.46 1006.28 1005.07 1003.45 1002.21 1001.57 1001.02 1000.44 999.76 999.26 998.49 997.38 996.83 996.62 996.56 997.08 997.44 998.01 998.62 999.53
1026.50 1026.14 1025.71 1025.32 1024.86 1024.37 1023.87 1023.27 1022.66 1021.67 1020.79 1019.65 1018.03 1016.76 1015.91 1014.73 1013.48 1012.88 1012.14 1011.74 1010.75 1009.68 1008.69 1007.51 1006.29 1004.85 1003.10 1001.60 1000.42 999.92 999.52 998.94 998.36 997.83 996.92 996.28 995.90 995.95 996.10 996.73 997.40 998.05 998.79
1025.88 1025.56 1025.10 1024.95 1024.56 1024.11 1023.63 1023.08 1022.36 1021.41 1020.64 1019.66 1018.49 1017.40 1015.83 1014.46 1013.82 1013.07 1012.49 1011.80 1010.91 1009.95 1008.88 1007.71 1006.25 1004.79 1002.97 1001.20 999.48 998.39 998.03 997.91 997.54 997.09 996.41 995.91 995.64 995.59 995.67 996.12 996.79 997.49 998.19
1025.35 1025.06 1024.69 1024.58 1024.31 1023.88 1023.35 1022.91 1022.23 1021.39 1020.60 1019.56 1018.52 1017.59 1015.66 1015.50 1014.81 1013.95 1012.87 1011.91 1011.04 1010.02 1008.95 1007.89 1006.52 1005.01 1003.41 1001.78 1000.06 998.27 997.33 996.83 996.26 995.83 995.48 995.24 995.22 995.32 995.56 996.01 996.53 997.15 997.87
1024.70 1024.69 1024.55 1024.25 1023.88 1023.55 1023.06 1022.68 1021.96 1021.33 1020.52 1019.61 1018.59 1017.63 1016.40 1015.85 1015.08 1014.19 1013.16 1012.15 1011.18 1010.25 1009.26 1008.16 1006.83 1005.44 1004.00 1002.50 1001.03 999.72 998.44 997.39 996.64 995.99 995.62 995.44 995.41 995.52 995.77 996.23 996.82 997.45 998.22
1024.02 1024.19 1024.00 1023.62 1023.48 1023.24 1022.85 1022.46 1021.79 1021.23 1020.54 1019.75 1018.91 1018.00 1017.08 1016.31 1015.45 1014.48 1013.48 1012.40 1011.34 1010.30 1009.28 1008.20 1007.05 1005.73 1004.31 1002.98 1001.75 1000.66 999.74 998.80 997.94 997.14 996.88 996.66 996.54 996.57 996.76 997.12 997.59 998.19 998.89
1023.50 1023.59 1023.53 1023.34 1023.23 1022.96 1022.79 1022.35 1021.79 1021.18 1020.54 1019.76 1019.04 1018.33 1017.59 1016.77 1015.92 1014.97 1013.90 1012.83 1011.74 1010.64 1009.58 1008.50 1007.36 1006.18 1004.87 1003.55 1002.41 1001.45 1000.49 999.68 998.93 998.34 997.91 997.70 997.66 997.78 998.00 998.26 998.63 999.11 999.69
1022.95 1022.99 1023.04 1023.05 1022.99 1022.77 1022.63 1022.23 1021.69 1021.13 1020.48 1019.86 1019.23 1018.51 1017.70 1016.94 1016.14 1015.20 1014.23 1013.29 1012.25 1011.14 1010.05 1008.97 1007.86 1006.70 1005.42 1004.13 1002.95 1002.12 1001.34 1000.55 999.94 999.46 999.09 998.86 998.86 998.97 999.16 999.42 999.79 1000.19 1000.65
1022.40 1022.49 1022.58 1022.74 1022.64 1022.57 1022.48 1022.02 1021.54 1021.00 1020.43 1019.82 1019.22 1018.52 1017.74 1016.93 1016.17 1015.29 1014.39 1013.53 1012.63 1011.61 1010.55 1009.48 1008.46 1007.35 1006.18 1004.88 1003.80 1002.60 1001.90 1001.39 1001.03 1000.59 1000.26 1000.10 1000.09 1000.17 1000.33 1000.59 1000.93 1001.39 1001.86
Wind_Speed
4 4 5 5 6 6 6 6 6 6 6 8 9 8 9 9 8 6 7 8 9 9 7 6 7 7 6 5 4 6 8 8 14 11 4 6 6 10 7 11 9 11 11
2 2 2 2 3 4 5 6 6 8 7 6 8 9 9 10 9 8 10 8 9 11 12 9 8 6 7 6 5 7 7 8 10 17 9 5 9 9 12 12 10 10 10
4 3 2 3 3 4 5 6 6 7 7 9 9 9 11 12 12 12 11 12 11 11 11 12 12 8 9 7 8 8 7 7 8 11 12 4 6 3 3 5 9 9 7
5 2 2 3 3 4 4 5 5 6 7 8 8 10 11 12 12 12 12 12 13 13 13 13 13 12 12 10 9 10 9 8 9 9 11 9 5 4 6 8 7 7 9
2 4 5 5 5 5 6 7 7 9 10 11 12 12 12 12 10 12 13 14 14 16 16 15 14 15 20 19 11 11 10 10 9 10 11 9 7 4 9 6 11 7 10
4 4 4 6 8 8 8 9 11 13 13 14 14 15 16 12 22 26 22 15 16 16 17 16 15 18 19 25 26 28 22 12 14 11 11 13 16 10 8 9 9 8 8
3 4 5 5 5 7 9 12 13 14 14 14 15 15 17 17 27 29 29 17 17 17 18 17 16 13 15 15 19 26 27 28 29 19 18 17 16 11 10 12 12 14 13
2 2 3 4 5 8 10 11 12 12 13 14 14 15 16 14 28 30 30 19 17 19 19 19 18 18 17 18 18 19 18 17 19 16 20 22 17 14 10 13 14 15 11
1 2 2 2 4 8 9 11 11 12 13 13 14 15 15 15 26 28 25 16 16 18 17 18 18 20 26 31 23 21 21 21 21 28 31 32 29 28 21 7 11 10 12
2 3 4 5 4 8 10 11 11 10 14 12 14 14 16 16 24 27 23 12 15 13 15 17 23 24 31 32 22 20 21 22 18 18 17 21 27 23 29 17 12 15 14
1 3 3 6 7 9 10 9 11 12 13 12 14 13 15 15 17 26 26 15 12 13 13 12 11 26 32 34 35 20 20 20 23 20 17 14 14 14 15 16 16 15 14
1 3 4 6 7 8 9 10 11 11 11 11 12 12 11 13 20 23 27 28 26 16 15 13 14 28 31 32 26 32 37 33 16 15 15 15 14 15 15 15 17 15 16
1 4 6 7 7 8 8 11 9 9 8 9 10 11 12 12 12 26 29 30 30 20 15 22 35 35 36 29 28 32 30 16 14 16 16 14 14 13 14 13 14 15 16
3 5 6 6 6 6 6 8 8 8 8 9 12 12 12 11 10 10 12 14 23 21 25 20 24 30 32 28 19 18 13 14 15 16 17 13 12 12 13 11 10 10 10
4 5 6 5 5 7 7 8 8 10 11 12 12 12 13 12 12 24 23 15 14 17 21 13 10 11 12 12 12 13 11 11 14 16 17 14 13 10 11 11 12 9 9
4 4 5 5 6 6 7 9 18 21 23 26 28 21 12 25 31 32 32 32 33 33 15 13 12 12 13 13 12 12 12 15 12 15 13 10 9 7 11 10 10 11 10
4 5 5 5 6 6 7 8 10 17 24 22 22 24 27 27 29 30 31 31 30 26 11 12 13 14 13 12 12 11 12 13 13 14 10 9 8 10 11 11 10 10 10
4 7 5 5 6 6 7 8 8 8 11 16 18 21 23 26 28 29 27 21 12 12 9 11 13 14 14 12 11 11 11 12 11 11 10 9 10 12 10 10 11 12 11
3 4 4 4 6 7 7 7 8 8 9 11 12 15 16 26 24 22 23 8 10 11 11 12 12 13 13 13 11 11 12 12 10 10 10 8 9 7 8 10 10 14 14
4 7 6 3 5 5 5 6 7 7 8 9 9 10 13 11 12 12 10 10 9 10 10 12 12 13 13 12 12 11 10 10 10 10 10 8 6 5 7 8 9 10 10
3 4 5 3 4 5 5 6 7 7 8 8 9 9 23 10 10 10 10 10 10 10 11 11 12 12 12 12 12 11 6 9 10 10 9 6 6 6 7 7 8 9 8
3 3 3 3 4 4 4 6 6 6 7 8 9 8 21 7 8 9 10 10 10 10 9 10 10 11 11 11 11 10 9 7 7 5 2 2 2 2 4 5 6 6 7
2 3 3 3 3 5 4 4 4 5 6 6 7 8 8 8 9 9 10 10 10 10 10 9 10 11 11 11 10 9 8 8 6 5 4 4 4 4 4 5 6 7 7
2 3 3 3 3 2 3 4 4 5 5 5 5 6 7 8 9 10 10 10 10 10 10 10 10 14 13 11 9 9 8 7 6 6 6 5 5 6 6 6 6 7 7
2 2 3 3 3 3 4 4 4 4 4 5 6 6 6 7 8 8 9 9 10 10 11 11 10 14 16 19 12 11 11 12 10 9 6 7 8 8 7 6 7 7 8
2 3 3 3 3 2 3 3 4 4 4 5 6 6 6 7 7 8 8 9 9 10 11 9 12 17 18 14 18 15 11 12 10 11 7 6 7 6 7 9 12 8 10
Wind_Direction
82 57 43 24 12 1 5 354 344 335 334 330 327 331 325 317 321 332 323 318 321 307 295 279 271 265 266 248 230 249 252 248 262 269 235 220 212 208 204 210 203 204 213
160 112 48 21 2 349 342 337 337 325 325 306 312 322 318 311 312 314 308 301 299 305 305 301 281 282 265 255 246 238 227 245 257 270 260 234 217 212 212 205 208 211 208
184 193 249 280 308 305 308 309 310 305 302 304 305 304 308 308 308 310 306 301 294 284 283 284 287 286 276 262 261 262 257 245 238 259 265 230 221 186 182 215 207 210 208
186 197 319 331 312 300 299 297 285 282 286 294 293 298 296 294 295 300 296 295 293 292 288 279 277 276 274 275 266 264 263 256 255 250 257 255 225 211 198 201 210 204 208
16 13 355 336 330 332 340 330 322 320 315 310 307 302 297 293 295 300 300 301 299 293 290 284 281 272 268 269 269 265 257 254 251 254 258 247 225 222 213 180 215 204 221
56 14 350 354 352 345 339 334 324 317 315 313 309 307 304 300 305 305 301 291 286 284 284 285 286 283 279 273 273 273 263 256 254 247 247 247 246 223 226 213 199 195 225
41 3 360 354 350 343 331 323 318 315 313 309 307 307 303 306 310 307 306 299 295 288 285 284 282 278 280 280 280 276 272 267 255 250 251 244 248 235 207 210 206 209 224
64 340 1 17 336 321 316 310 308 307 306 306 305 305 300 303 309 309 305 297 292 289 287 286 284 284 281 285 286 281 270 261 256 254 249 253 247 245 224 219 213 221 231
354 80 76 323 295 307 301 301 302 302 301 300 298 302 301 299 303 302 303 296 287 286 286 284 283 282 282 281 277 276 276 272 265 258 253 253 251 244 237 225 224 210 227
96 345 328 313 296 300 296 297 295 291 293 298 295 295 294 294 297 299 299 289 285 286 284 284 282 282 282 280 273 270 270 266 266 263 257 258 254 249 242 220 210 221 222
52 316 302 298 294 288 286 290 294 292 292 290 291 293 289 284 285 292 294 291 287 285 281 283 284 289 289 288 285 283 272 270 264 260 256 250 242 240 241 230 215 214 218
256 271 275 276 279 285 283 288 288 289 286 290 295 292 284 282 279 285 290 291 290 289 285 281 280 285 285 283 280 275 278 280 276 263 247 239 237 241 238 234 231 215 225
269 268 268 267 264 268 276 285 291 286 286 295 293 287 285 280 274 279 283 286 285 281 273 272 276 280 281 288 293 286 285 274 277 266 252 245 231 227 234 233 234 233 224
270 275 276 261 276 269 269 278 284 282 286 290 283 280 278 278 281 282 273 270 270 271 268 267 263 268 270 269 276 273 264 257 264 268 265 244 234 222 216 219 226 223 220
261 276 276 270 271 286 272 280 278 276 281 285 286 291 298 300 295 296 303 297 287 279 283 280 268 252 255 256 255 249 252 264 259 270 253 242 239 218 211 207 206 206 212
276 284 283 293 291 290 292 294 291 297 303 301 303 305 301 304 308 311 315 309 306 304 291 285 286 290 275 267 258 256 255 259 259 273 247 244 232 238 204 200 200 206 205
237 277 287 290 286 290 296 298 301 312 312 309 312 317 315 317 322 318 316 322 323 321 316 305 295 288 281 270 263 257 256 259 260 272 241 236 234 229 207 195 192 198 202
257 272 271 273 279 288 289 293 296 299 308 314 321 322 328 327 324 330 334 340 323 325 309 304 302 301 298 275 261 254 257 263 262 271 273 247 240 219 198 203 195 197 198
264 259 251 269 273 285 292 290 290 297 300 300 310 323 320 322 336 340 339 326 318 315 315 310 307 301 294 278 261 250 247 256 259 270 266 251 248 209 207 206 199 196 191
247 256 262 265 288 287 289 292 294 303 302 302 312 318 314 342 340 336 335 327 322 318 316 314 313 313 313 318 289 252 242 240 253 254 257 254 238 219 217 191 188 185 191
242 250 254 268 269 277 285 289 291 299 299 305 309 315 335 352 325 325 326 330 328 324 323 321 318 320 321 323 326 334 250 242 239 241 241 232 206 206 202 193 184 186 179
225 243 249 253 274 276 280 283 292 295 300 309 314 318 338 333 329 327 328 328 327 324 321 321 321 325 326 327 332 336 341 355 353 350 17 56 88 117 145 150 152 148 143
215 259 264 271 269 275 287 282 287 292 301 305 313 321 329 330 327 328 329 328 329 330 329 330 332 333 336 337 339 341 343 346 346 360 36 47 55 76 97 113 123 127 136
214 238 265 284 284 278 284 283 288 287 295 302 303 312 316 322 321 321 325 326 330 332 335 335 336 336 337 340 346 347 351 357 359 11 26 49 68 75 84 92 104 117 124
215 243 261 271 266 280 293 285 286 293 288 295 304 303 307 308 312 316 320 324 326 330 333 336 339 340 346 350 341 348 1 16 23 23 31 58 70 73 79 85 95 95 105
233 242 255 258 262 261 263 280 287 288 294 301 296 297 299 308 307 311 317 324 327 326 328 332 335 339 341 352 357 4 16 36 29 33 38 54 67 73 82 90 94 96 98